Find OneWeb SL0223

NORAD ID: 48768 Int'l Des: 2021-045 Owner: ONEWEBN Country: UK Constellation: oneweb operational
LEOCIRCULARPOLARONEWEB_TYPE

Live Position

Loading 3D Globe...

About OneWeb SL0223

Description loading...

Upcoming Passes

Passes for default location (London). Set your location on the main map for personalized predictions.

Altitude History

Loading altitude history...

Two-Line Element Set

1 48768U 21045B 26126.89414413 .00000109 00000-0 25629-3 0 9993
2 48768 87.8972 267.4194 0001667 82.9737 277.1583 13.15549131238970
Epoch: May 6, 2026 • Age: 19 hours

Current Status

Altitude 1212.1 km
Velocity 7.25 km/s
Sub-Earth Point 66.61°N, 165.84°E
Launch Date May 28, 2021
Age 4.9 years
Type internet

Technical Details

Classification Payload
Mass 148.00 kg
Dry Mass 140.00 kg
Total Mass 148.00 kg
Length 1.30 m
Diameter 1.00 m
Span 5.00 m
Shape Trapezoid+2 pan
Manufacturer ONEWUS
Bus Type ARROW
Phase Status In Orbit
Owner/State ONEWEBN/UK

Most Searched